Regional Weather Roundup
Issued by NWS

Home | Current Version | Previous Version | Text Only | Print | Product List | Glossary Off
Versions: 1 2 3 4 5 6 7 8 9 10 11 12 13 14 15 16 17 18 19 20 21 22 23 24 25 26 27 28 29 30 31 32 33 34 35 36 37 38 39 40 41 42 43 44 45 46 47 48 49 50

000
ASUS43 KDTX 161510
RWRMI
MICHIGAN HOURLY REGIONAL WEATHER ROUNDUP
NATIONAL WEATHER SERVICE DETROIT/PONTIAC MI
ISSUED BY NATIONAL WEATHER SERVICE GRAND RAPIDS MI
1000 AM EST MON JAN 16 2017

NOTE: "FAIR" INDICATES FEW OR NO CLOUDS BELOW 12,000 FEET WITH NO
SIGNIFICANT WEATHER AND/OR OBSTRUCTION TO VISIBILITY.

MIZ047>049-052>055-059>063-066>070-074>076-081>083-161600-
SOUTHEAST LOWER MICHIGAN

CITY           SKY/WX    TMP DP  RH WIND       PRES   REMARKS
ADRIAN         CLOUDY    29  26  89 E3        30.33R FOG
ALMA           CLOUDY    27  24  91 CALM      30.31S FOG
ANN ARBOR      CLOUDY    29  26  89 CALM      30.33S FOG
BAD AXE        CLOUDY    25  22  87 S6        30.33R WCI  18
DETROIT CITY   CLOUDY    28  27  96 CALM      30.35F FOG
DETROIT        CLOUDY    29  27  92 E3        30.35F FOG
FLINT          CLOUDY    27  22  81 CALM      30.32F
GROSSE ILE     CLOUDY    29  28  92 E3        30.34S FOG
HILLSDALE      MIX PCPN  30  28  93 E3        30.29R
HOWELL         CLOUDY    28  24  86 CALM      30.31S FOG

CITY           SKY/WX    TMP DP  RH WIND       PRES   REMARKS
JACKSON        MIX PCPN  30  25  81 SE3       30.32R
LANSING        CLOUDY    29  22  75 CALM      30.32R
MASON          CLOUDY    29  26  90 CALM      30.32R FOG
MONROE         CLOUDY    31  30  95 E6        30.34R FOG     WCI  25
MT. CLEMENS    MOSUNNY   27  26  95 CALM      30.33F
PONTIAC        CLOUDY    25  22  88 SE3       30.31F FOG
PORT HOPE        N/A     27  21  78 SW8       30.31S WCI  19
PORT HURON     MOSUNNY   25  25 100 CALM      30.36R FOG
TRI CITIES     CLOUDY    26  23  88 S6        30.32S FOG     WCI  19
YPSILANTI      CLOUDY    29  26  89 NE3       30.34F FOG
$$
MIZ043>046-050>051-056>058-064>065-071>073-077>080-161600-
SOUTHWEST LOWER MICHIGAN

CITY           SKY/WX    TMP DP  RH WIND       PRES   REMARKS
BATTLE CREEK   FRZ RAIN  30  26  85 E3        30.30S FOG
BENTON HARBOR  CLOUDY    33  28  81 E3        30.28F HAZE
BIG RAPIDS     CLOUDY    18  16  89 CALM      30.28F FOG
COLDWATER      CLOUDY    32  29  89 E8        30.29S FOG     WCI  25
HOLLAND        FRZ RAIN  31  26  82 E3        30.30S
GRAND RAPIDS   LGT SNOW  28  22  78 S5        30.30S WCI  23
KALAMAZOO      CLOUDY    31  26  82 SE3       30.30S HAZE
MARSHALL       LGT SNOW  31  27  86 CALM      30.30S
MOUNT PLEASANT CLOUDY    24  23  93 CALM      30.29F FOG
MUSKEGON       FRZ RAIN  30  25  81 SE6       30.30S WCI  24
STURGIS        CLOUDY    32  28  83 E6        30.28R WCI  26
$$
MIZ016>042-161600-
NORTHERN LOWER MICHIGAN

CITY           SKY/WX    TMP DP  RH WIND       PRES   REMARKS
ALPENA         CLOUDY    23  19  85 CALM      30.27R
BEAVER ISLAND  CLOUDY    32  25  74 SW14      30.22S WCI  22
BELLAIRE       CLOUDY    14  13  94 CALM      30.28S
CADILLAC       CLOUDY    22  19  89 CALM      30.25R FOG
CHARLEVOIX     CLOUDY    24  24  99 SE6       30.28S FOG     WCI  17
GAYLORD        CLOUDY    21  17  84 SW6       30.23R FOG     WCI  13
HOUGHTON LAKE  CLOUDY    12   9  87 CALM      30.28R
MANISTEE       MOSUNNY   20  19  96 E3        30.29R FOG
OSCODA         PTSUNNY   22  19  89 S7        30.29S FOG     WCI  13
PELLSTON       CLOUDY    31  25  78 W7G17     30.23S WCI  24
TRAVERSE CITY  CLOUDY    24  23  96 CALM      30.26S FOG
LUDINGTON      MOSUNNY   26  26  99 CALM      30.28R FOG
$$
MIZ007>008-015-161600-
EASTERN UPPER MICHIGAN

CITY           SKY/WX    TMP DP  RH WIND       PRES   REMARKS
KINROSS        CLOUDY    28  24  85 SW6       30.20R WCI  22
MACKINAC ISLAN CLOUDY    31  27  84 SW13G24   30.20S WCI  21
NEWBERRY       CLOUDY    19  15  81 SW9       30.18R WCI   9
S. S. MARIE    CLOUDY    24  20  84 W7        30.19R WCI  16
$$
MIZ004>006-011>014-085-161600-
CENTRAL UPPER MICHIGAN

CITY           SKY/WX    TMP DP  RH WIND       PRES   REMARKS
MANISTIQUE     MOSUNNY   24  17  76 W3        30.21R
ESCANABA       CLOUDY     9   6  88 S5        30.23F WCI   1
SAWYER-GWINN   SUNNY     16  12  86 SW8       30.15S WCI   5
$$
MIZ001>003-009>011-084-161600-
WESTERN UPPER MICHIGAN

CITY           SKY/WX    TMP DP  RH WIND       PRES   REMARKS
IRON MOUNTAIN  CLOUDY    14   8  77 N3        30.18R
HOUGHTON       SUNNY     26  18  71 W15       30.12R WCI  14
COPPER HARBOR    N/A     32  26  78 NW9       30.12R WCI  24
IRONWOOD       CLOUDY    22  15  75 SW6       30.16S WCI  14
$$

ABBREVIATIONS USED IN REMARKS
   TC - TEMPERATURE IN CELSIUS
  WCI - WIND CHILL INDEX
   HX - HEAT INDEX
  VSB - VISIBILITY




USA.gov is the U.S. government's official web portal to all federal, state and local government web resources and services.